Location: Amsterdam
(30.7274°N, 84.4357°W)
Time: 17:22:50
(UTC+00:00)

Injun/Solrad 3 - Pass Details

Date: 23 February 2026
Orbit: 871 x 985 km, 66.8° (Epoch: 11 March)

Event Time Altitude Azimuth Distance (km) Brightness Sun altitude
Rises 01:59:29 0° 324° (NW) 3,613 11.5 -32.5°
Reaches altitude 10° 02:02:11 10° 316° (NW) 2,681 10.9 -33.1°
Maximum altitude 02:07:49 36° 252° (WSW) 1,478 9.2 -34.3°
Enters shadow 02:10:23 26° 209° (SSW) 1,800 9.5 -34.8°
Drops below altitude 10° 02:13:33 10° 187° (S) 2,719 - -35.5°
Sets 02:16:20 0° 179° (S) 3,670 - -36.1°
